003  
ASUS45 KREV 080010  
RWRNV  
NEVADA REGIONAL WEATHER ROUNDUP  
NATIONAL WEATHER SERVICE RENO NV  
500 PM PDT SUN AUG 07 2022  
 
NOTE: "FAIR" INDICATES FEW OR NO CLOUDS BELOW 12,000 FEET WITH NO  
SIGNIFICANT WEATHER AND/OR S TO VISIBILITY
.  
 
NVZ001-003-004-080100-  
WESTERN NEVADA  
 
CITY SKY/WX TMP DP RH WIND PRES REMARKS
 
RENO PTSUNNY 96 44 16 VRB5 30.07F  
6HR MIN TEMP: 83; 6HR MAX TEMP: 98;  
 
CARSON CITY FAIR 93 39 15 CALM 30.10F  
MINDEN FAIR 90 41 18 CALM 30.09F  
SLIDE MTN N/A 72 45 37 NW2 N/A  
PYRAMID LAKE N/A 95 N/A N/A NW3 N/A  
FALLON MOSUNNY 99 35 10 NE8 30.02F  
6HR MIN TEMP: 87; 6HR MAX TEMP: 100;  
 
LOVELOCK MOSUNNY 96 35 11 CALM 30.04F  
6HR MIN TEMP: 87; 6HR MAX TEMP: 99;  
 
HAWTHORNE MOSUNNY 93 37 14 NW7 30.05F  

 
 
NVZ002-CAZ072-073-080100-  
NORTHERN AND CENTRAL SIERRA  
 
CITY SKY/WX TMP DP RH WIND PRES REMARKS
 
S. LAKE TAHOE MOSUNNY 77 52 41 NE6 30.25S  
6HR MIN TEMP: 75; 6HR MAX TEMP: 85;  
 
TRUCKEE SUNNY 82 46 28 W13 30.23  
BLUE CANYON SUNNY 79 46 31 W6 30.24S  
SUSANVILLE FAIR 93 39 15 W14G20 30.07S  
MAMMOTH LAKES CLOUDY 77 37 24 W7 30.32S  
BRIDGEPORT N/A 82 45 26 SW3 N/A  

 
 
NVZ030-031-036-080100-  
NORTHERN NEVADA  
 
CITY SKY/WX TMP DP RH WIND PRES REMARKS
 
ELKO MOSUNNY 86 42 21 SW6 30.19F  
6HR MIN TEMP: 75; 6HR MAX TEMP: 87;  
 
WINNEMUCCA PTSUNNY 92 43 18 NE8 30.10F  
6HR MIN TEMP: 86; 6HR MAX TEMP: 96;  
 
BATTLE MOUNTAI MOCLDY 95 37 13 E5G17 30.13F  
WENDOVER SUNNY 84 55 36 SE6 30.20F  

 
 
NVZ035-037-080100-  
CENTRAL NEVADA  
 
CITY SKY/WX TMP DP RH WIND PRES REMARKS
 
ELY MOSUNNY 84 37 18 E5 30.28F  
6HR MIN TEMP: 76; 6HR MAX TEMP: 87;  
 

 
 
NVZ013-014-080100-  
SOUTH CENTRAL NEVADA  
 
CITY SKY/WX TMP DP RH WIND PRES REMARKS
 
TONOPAH MOSUNNY 88 44 21 SW8 30.18F  
6HR MIN TEMP: 81; 6HR MAX TEMP: 90;  
 

 
 
NVZ017-020-022-080100-  
SOUTHERN NEVADA  
 
CITY SKY/WX TMP DP RH WIND PRES REMARKS
 
LAS VEGAS MOSUNNY 102 48 16 VRB5 29.91F  
6HR MIN TEMP: 94; 6HR MAX TEMP: 104;  
 
N. LAS VEGAS SUNNY 103 47 15 S5 29.90F  
6HR MIN TEMP: 96; 6HR MAX TEMP: 105;  
 
NELLIS AFB SUNNY 106 45 12 CALM 29.87F  
6HR MIN TEMP: 99; 6HR MAX TEMP: 108;  
 
HENDERSON SUNNY 103 50 17 W8 29.95F  
6HR MIN TEMP: 94; 6HR MAX TEMP: 103;  
 
MERCURY SUNNY 100 45 15 VRB3 29.99F  
6HR MIN TEMP: 94; 6HR MAX TEMP: 102;  
 

 
 
 
CLICK HERE TO GO TO PREVIOUS BULLETINS.

The Nexlab NV Page Main Text Page